Regional Weather Roundup
Issued by NWS Upton, NY

Current Version | Previous Version | Text Only | Print | Product List | Glossary On
Versions: 1 2 3 4 5 6 7 8 9 10 11 12 13 14 15 16 17 18 19 20 21 22 23 24 25 26 27 28
000
ASUS41 KOKX 182208
RWROKX

REGIONAL WEATHER ROUNDUP
NATIONAL WEATHER SERVICE NEW YORK NY
500 PM EST WED JAN 18 2017

NOTE: "FAIR" INDICATES FEW OR NO CLOUDS BELOW 12,000 FEET WITH NO
SIGNIFICANT WEATHER AND/OR OBSTRUCTIONS TO VISIBILITY.

NYZ071-072-176-178-NJZ106-104-182300-
NEW YORK CITY METRO AREA

CITY           SKY/WX    TMP DP  RH WIND       PRES   REMARKS
Central Park   CLOUDY    40  37  89 VRB6      30.01R
Wall St Helipt NOT AVBL
Bronx Bot Gard NOT AVBL
LaGuardia APRT CLOUDY    42  37  82 N9        29.99R
Kennedy INTL   CLOUDY    42  36  79 N10       30.01R
Breezy Point   NOT AVBL
Newark/Liberty CLOUDY    42  37  82 N10       30.00R
Teterboro      CLOUDY    43  37  79 N6        29.99R
$$

NYZ177-179-078>081-182300-
LONG ISLAND NEW YORK

CITY           SKY/WX    TMP DP  RH WIND       PRES   REMARKS
Jones Beach    NOT AVBL
Matinecock PT  NOT AVBL
Farmingdale    CLOUDY    40  37  89 N10       29.98R WCI  33
MacArthur/ISP  CLOUDY    39  38  96 N12       29.97R WCI  32
Shirley        CLOUDY    39  38  96 N8        29.97R WCI  33
Westhampton    CLOUDY    40  37  89 N8        29.96R WCI  34
Southampton    NOT AVBL
Bridgehampton  NOT AVBL
East Hampton   CLOUDY    40  38  95 N5        29.94R
Montauk          N/A     42  40  92 NE8       29.95R
$$

NYZ052-065-067-182300-
HUDSON VALLEY

CITY           SKY/WX    TMP DP  RH WIND       PRES   REMARKS
White Plains   MOCLDY    39  36  89 NW8       29.98R WCI  33
Newburgh       CLOUDY    37  37 100 MISG      30.00R
Montgomery     CLOUDY    39  36  89 N3        29.99R
Poughkeepsie   CLOUDY    38  35  89 CALM      30.00R
Albany         DRZL/FOG  35  33  92 N5        30.03R VSB 1   WCI  31
$$

NJZ001-105-106-008-010-013-015-019>022-104-182300-
NEW JERSEY

CITY           SKY/WX    TMP DP  RH WIND       PRES   REMARKS
Newark/Liberty CLOUDY    42  37  82 N10       30.00R
Teterboro      CLOUDY    43  37  79 N6        29.99R
Caldwell       CLOUDY    41  36  82 CALM      30.00R
Somerville     CLOUDY    43  36  76 N3        29.98R
Linden         CLOUDY    42  37  82 CALM      30.00R
Sussex         CLOUDY    39  36  89 NE5       29.99R
Andover          N/A     38  36  92 CALM      29.99R
Trenton        CLOUDY    44  39  82 N3        29.99R
Millville      CLOUDY    48  43  82 N6        29.98R
Atlantic City  CLOUDY    45  40  82 N9        29.98R
Wrightstown    CLOUDY    43  39  86 NW9       29.96R
Toms River     NOT AVBL
Belmar         CLOUDY    40  39  97 NW9       30.00R WCI  34
$$

PAZ047>061-062-071-182300-
EASTERN PENNSYLVANIA

CITY           SKY/WX    TMP DP  RH WIND       PRES   REMARKS
Philadelphia   CLOUDY    47  40  76 N8        30.00R
Allentown      CLOUDY    43  38  82 CALM      30.00R
Scranton       CLOUDY    40  39  97 CALM      30.00R FOG
$$

CTZ002-004>006-009-010-012-RIZ004-006-007-MAZ004-011-015-182300-
SOUTHERN NEW ENGLAND
 IN CT

CITY           SKY/WX    TMP DP  RH WIND       PRES   REMARKS
Bradley INTL   CLOUDY    36  34  92 N8        30.01R WCI  30
Hartford       CLOUDY    37  35  92 N8        30.01R WCI  31
Danbury        CLOUDY    38  34  85 N5        30.00R WCI  34
Wtrbury/Oxford CLOUDY    37  32  81 NE7       29.97R WCI  32
Bridgeport     CLOUDY    42  35  76 N8        29.99R
Meriden        CLOUDY    39  34  82 N8        29.99R WCI  33
New Haven      CLOUDY    39  36  89 N13       29.98R WCI  31
Chester        CLOUDY    37  37 100 N10       29.97R WCI  30
Groton         CLOUDY    42  38  85 N9        29.95R
Wilimantic     CLOUDY    38  36  92 NE7       29.99R WCI  33

 IN RI

CITY           SKY/WX    TMP DP  RH WIND       PRES   REMARKS
Providence     CLOUDY    40  37  89 NE12      29.97R WCI  33
Block Island   NOT AVBL
Westerly       CLOUDY    42  37  82 NE8       29.96R
 IN MA

CITY           SKY/WX    TMP DP  RH WIND       PRES   REMARKS
Boston         LGT RAIN  39  39 100 NE10      30.01R FOG     WCI  32
Worcester      FOG       30  29  96 NE12      29.97R VSB 1/4 WCI  20
Westfield      CLOUDY    34  34 100 N6        30.01R WCI  29
Provincetown   CLOUDY    40  38  93 E14       29.98R WCI  32
Nantucket      LGT RAIN  41  39  93 NE15      29.92R FOG
$$

ANZ330-335-338-340-345-350-353-355-182300-
COASTAL MARINE OBSERVATIONS


STATION/POSITION TIME  SKY/WX   TEMP    WIND        PRES    VSBY  WAVE
                                AIR SEA DIR/SP/G                  HT/PER
                 (UTC)          (F)     (DEG/KT/KT) (MB)    (MI)  (FT/S)
NY HARB ENTRANCE 2050            42 44   10/ 14/ 16 1013.7          4/ 7
20 S FIRE ISLAND 2150            41 45   10/ 17/ 21 1013.5          7/ 7
GREAT SOUTH BAY  NOT AVBL
23 SSW MONTAUK P 2050            43 46   10/ 19/ 25 1013.0          7/ 7
15 E BARNEGAT LI 2130               47                N/A           5/ 6
HUDSON CANYON    2150            48 53              1011.2          7/ 8
KINGS POINT      2130            39 38              1015.1
EXECUTION ROCKS  2145            40     350/  6/ 10   N/A
CENTRAL LI SOUND 2115            40      10/  8/ 10   N/A           1/ 3
EASTERN LI SOUND NOT AVBL
ROBBINS REEF     2130            41     350/ 13/ 15 1015.5
$$


>>>>>>>>>>>>>>>>>>>>>>>>>>>> KEY <<<<<<<<<<<<<<<<<<<<<<<<<<<
>                                                          <
>     SKY/WX - Sky Condition/Present Weather               <
>     TMP    - Temperature in Fahrenheit                   <
>     DP     - Dew Point in Fahrenheit                     <
>     RH     - Relative Humidity in Percent                <
>     WIND   - Direction (from) and Speed in MPH           <
>     PRES   - Mean Sea Level Pressure (inches of Hg)      <
>     WCI    - Wind Chill Index                            <
>     VSB    - VISIBILITY IN MILES                         <
>     HX     - HEAT INDEX                                  <
>     TC     - TEMPERATURE IN CELSIUS                      <
>     VRB    - VARIABLE WIND DIRECTION                     <
>                                                          <
>>>>>>>>>>>>>>>>>>>>>>>>>>>> KEY <<<<<<<<<<<<<<<<<<<<<<<<<<<




USA.gov is the U.S. government's official web portal to all federal, state and local government web resources and services.